This is the latest recevied weather packets stored in our database for station/object AG1T-1. If no packets are shown the sender has not sent any weather packets the latest 10 day(s).
| Time | Temp. | Humidity | Pressure | Rain* | Wind** | Luminosity | Snow |
|---|---|---|---|---|---|---|---|
| 1777997403 | 9.44° C | 90% | 1014.1 hPa | 0 mm | - | 178 W/m² | - |
| 1777996803 | 9.44° C | 90% | 1014 hPa | 0 mm | - | 53 W/m² | - |
| 1777996203 | 9.44° C | 90% | 1014 hPa | 0 mm | - | 30 W/m² | - |
| 1777995603 | 9.44° C | 89% | 1013.8 hPa | 0 mm | - | 21 W/m² | - |
| 1777995003 | 9.44° C | 89% | 1013.7 hPa | 0 mm | - | 21 W/m² | - |
| 1777994403 | 8.89° C | 88% | 1013.7 hPa | 0 mm | - | 49 W/m² | - |
| 1777993803 | 9.44° C | 88% | 1013.8 hPa | 0 mm | - | 49 W/m² | - |
| 1777993203 | 10° C | 88% | 1013.8 hPa | 0 mm | - | 21 W/m² | - |
| 1777992603 | 10.56° C | 89% | 1013.6 hPa | 0 mm | - | 28 W/m² | - |
| 1777992003 | 10.56° C | 87% | 1013.4 hPa | 0 mm | - | 42 W/m² | - |
| 1777991403 | 10.56° C | 86% | 1013.2 hPa | 0 mm | - | 33 W/m² | - |
| 1777990803 | 10.56° C | 86% | 1013.1 hPa | 0 mm | - | 39 W/m² | - |
| 1777989603 | 11.11° C | 81% | 1013 hPa | 0 mm | - | 9 W/m² | - |
| 1777989003 | 11.11° C | 80% | 1012.9 hPa | 0 mm | - | 7 W/m² | - |
| 1777988403 | 11.11° C | 80% | 1012.8 hPa | 0 mm | - | 12 W/m² | - |
| 1777987803 | 11.11° C | 80% | 1012.8 hPa | 0 mm | - | 11 W/m² | - |
| 1777987203 | 11.11° C | 80% | 1012.6 hPa | 0 mm | - | 5 W/m² | - |
| 1777986603 | 11.11° C | 79% | 1012.6 hPa | 0 mm | - | 0 W/m² | - |
| 1777986003 | 11.67° C | 78% | 1012.5 hPa | 0 mm | - | 0 W/m² | - |
| 1777985403 | 11.67° C | 74% | 1012.4 hPa | 0 mm | - | 0 W/m² | - |
| 1777984803 | 12.22° C | 68% | 1012.1 hPa | 0 mm | - | 0 W/m² | - |
| 1777984203 | 12.22° C | 65% | 1011.9 hPa | 0 mm | - | 0 W/m² | - |
| 1777983603 | 11.67° C | 66% | 1011.8 hPa | 0 mm | - | 0 W/m² | - |
| 1777983003 | 11.67° C | 71% | 1011.8 hPa | 0 mm | - | 0 W/m² | - |
| 1777982403 | 11.67° C | 70% | 1011.6 hPa | 0 mm | - | 0 W/m² | - |
* Rain latest hour (hover to see other rain measurements)
** Current wind speed in m/s (hover to see current wind gust speed)